Location: Clifton Park
(41.4873°N, 81.8024°W)
Time: 19:50:44
(UTC+00:00)

BREEZE-M DEB (TANK) - Pass Details

Date: 21 January 2020
Orbit: 663 x 22266 km, 51.1° (Epoch: 25 February)

Event Time Altitude Azimuth Distance (km) Brightness Sun altitude
Rises 09:46:10 0° 234° (SW) 14,456 9.1 -33.9°
Enters shadow 09:56:56 - 236° (SW) 11,436 8.5 -31.9°
Exits shadow 10:17:38 33° 244° (WSW) 4,128 6.2 -28.0°
Maximum altitude 10:24:54 77° 326° (NW) 1,615 4.4 -26.6°
Drops below altitude 10° 10:30:15 10° 54° (NE) 2,601 6.3 -25.6°
Sets 10:31:50 0° 56° (NE) 3,284 7.0 -25.3°
